Regional Weather Roundup
Issued by NWS Jackson, KY

Home | Current Version | Previous Version | Graphics & Text | Print | Product List | Glossary On
Versions: 1 2 3 4 5 6 7 8 9 10 11 12 13 14 15 16 17 18 19 20 21 22 23 24 25 26 27 28 29 30 31 32 33 34 35 36 37 38 39 40 41 42 43 44 45 46 47 48 49 50
000
ASUS43 KJKL 020905
RWRJKL

EAST KENTUCKY HOURLY WEATHER ROUNDUP
NATIONAL WEATHER SERVICE JACKSON KY
500 AM EDT THU OCT 02 2014

NOTE: "FAIR" INDICATES FEW OR NO CLOUDS BELOW 12,000 FEET WITH
NO SIGNIFICANT WEATHER AND/OR OBSTRUCTIONS TO VISIBILITY.

* THESE REPORTS ARE NOT UNDER NWS QUALITY CONTROL AND MAY NOT
  REPORT WEATHER SUCH AS PRECIPITATION AND FOG.

KYZ079-080-083-085-087-088-110-112-115-119-120-021000
...EASTERN KENTUCKY...

CITY           SKY/WX    TMP DP  RH WIND       PRES   REMARKS
JACKSON        CLEAR     61  57  87 CALM      30.06R
LONDON         CLEAR     56  53  90 CALM      30.05S FOG
SOMERSET*      PTCLDY    55  55 100 CALM      30.04S
MONTICELLO*    CLEAR     56  55  96 CALM      30.04S
MIDDLESBORO*   FOG       53  53 100 CALM      30.09R VSB 1/4
HARLAN APT*    CLOUDY    54  54 100 E5        30.09R VSB 1/4
BLACK MTN*       N/A     57  50  77 SW3         N/A
PIKEVILLE APT* CLEAR     59  57  94 S5        30.07R
BIG SANDY*     SUNNY     60  58  93 CALM      30.05S
MOREHEAD APT*  PTSUNNY   61  59  94 SE7       30.06R
$$

KYZ035-036-041-042-044-050-067-078-099-021000
...CENTRAL KENTUCKY...

CITY           SKY/WX    TMP DP  RH WIND       PRES   REMARKS
MT STERLING*   CLEAR     55  55 100 CALM      30.04S FOG
FLEMING/MASON* FOG       55  55 100 E5        30.04S VSB<1/4
DANVILLE*      CLEAR     55  54  94 S3        30.03S
RICHMOND*      CLEAR     57  54  88 CALM      30.03R
LEXINGTON      CLEAR     63  58  83 SE6       30.02S
FRANKFORT      PTCLDY    62  57  83 S5        29.99S
$$

KYZ091>093-OHZ055-061-077-WVZ005-015-034-035-042-021000
...SOUTHERN OHIO/WEST VIRGINIA...

CITY           SKY/WX    TMP DP  RH WIND       PRES   REMARKS
COVINGTON      MOCLDY    60  53  77 E6        30.00S
COLUMBUS       CLEAR     50  48  93 CALM      30.04R FOG
DAYTON         MOCLDY    56  49  77 E6        30.02F
WILMINGTON     MOCLDY    53  46  77 E6        30.03S
HUNTINGTON     FOG       54  54 100 CALM      30.04R VSB 1/4
CHARLESTON     FOG       55  54  96 CALM      30.05S VSB 1/4
PINEVILLE*     CLOUDY    54  54 100 MISG      30.14S FOG
BECKLEY        CLEAR     53  50  89 CALM      30.12R
BLUEFIELD      CLEAR     58  51  78 CALM      30.14R
$$

VAZ002-007-008-TNZ017-027-036-066-071-021000
...SOUTHWEST VIRGINIA/EAST TENNESSEE...

CITY           SKY/WX    TMP DP  RH WIND       PRES   REMARKS
WISE*          CLEAR     55  48  76 CALM      30.12S
JONESVILLE*    SUNNY     50  50 100 CALM      30.10S FOG
ABINGDON*      CLEAR     58  55  91 E7        30.10R
BRISTOL        CLEAR     51  49  92 CALM      30.08S FOG
KNOXVILLE      CLEAR     58  56  93 CALM      30.05R
OAK RIDGE      CLEAR     57  55  93 CALM      30.07S
CROSSVILLE     CLEAR     59  53  80 CALM      30.08R
NASHVILLE      CLEAR     64  58  80 S3        29.98S
$$

...KEY TO REMARKS...
VSB - VISIBILITY IN MILES
WCI - WIND CHILL INDEX
HX  - HEAT INDEX

$$


USA.gov is the U.S. government's official web portal to all federal, state and local government web resources and services.